Location: Erp
(42.9417°N, 1.2009°E)
Time: 19:53:24
(UTC+00:00)

Cosmos 2074 Rocket - Pass Details

Date: 12 January 2026
Orbit: 966 x 986 km, 82.9° (Epoch: 13 February)

Event Time Altitude Azimuth Distance (km) Brightness Sun altitude
Rises 17:04:54 0° 350° (N) 3,692 6.9 -4.5°
Reaches altitude 10° 17:07:26 10° 348° (NNW) 2,738 6.2 -4.9°
Maximum altitude 17:13:40 71° 266° (W) 1,030 4.4 -5.9°
Drops below altitude 10° 17:19:49 10° 184° (S) 2,705 6.7 -7.0°
Sets 17:22:19 0° 182° (S) 3,646 7.3 -7.4°
